Location: Landeleau
(48.2273°N, 3.7285°W)
Time: 02:44:02
(UTC+00:00)

IGS 5A - Pass Details

Date: 30 March 2020
Orbit: 585 x 587 km, 97.6° (Epoch: 01 June)

Event Time Altitude Azimuth Distance (km) Brightness Sun altitude
Exits shadow 20:49:29 36° 62° (ENE) 940 4.2 -20.5°
Drops below altitude 10° 20:53:06 10° 2° (N) 1,922 6.5 -21.0°
Sets 20:55:23 0° 354° (N) 2,827 7.5 -21.3°
